Regional Weather Roundup
Issued by NWS Jackson, KY

Home | Current Version | Previous Version | Text Only | Print | Product List | Glossary Off
Versions: 1 2 3 4 5 6 7 8 9 10 11 12 13 14 15 16 17 18 19 20 21 22 23 24 25 26 27 28 29 30 31 32 33 34 35 36 37 38 39 40 41 42 43 44 45 46 47

000
ASUS43 KJKL 020010
RWRJKL

EAST KENTUCKY HOURLY WEATHER ROUNDUP
NATIONAL WEATHER SERVICE JACKSON KY
700 PM EST SUN MAR 01 2015

NOTE: "FAIR" INDICATES FEW OR NO CLOUDS BELOW 12,000 FEET WITH
NO SIGNIFICANT WEATHER AND/OR OBSTRUCTIONS TO VISIBILITY.

* THESE REPORTS ARE NOT UNDER NWS QUALITY CONTROL AND MAY NOT
  REPORT WEATHER SUCH AS PRECIPITATION AND FOG.

KYZ079-080-083-085-087-088-110-112-115-119-120-020100
...EASTERN KENTUCKY...

CITY           SKY/WX    TMP DP  RH WIND       PRES   REMARKS
JACKSON        CLOUDY    44  42  93 VRB5      30.26R
6HR MIN TEMP:  39; 6HR MAX TEMP:  44; 6HR PCP:  0.07;

LONDON         CLOUDY    47  42  83 S6        30.28S
6HR MIN TEMP:  47; 6HR MAX TEMP:  50; 6HR PCP:  0.01;

SOMERSET*      CLOUDY    45  45 100 CALM      30.30R FOG
MONTICELLO*    CLOUDY    50  49  96 SW7       30.31S
6HR MIN TEMP:  49; 6HR MAX TEMP:  52; 6HR PCP:  0.05;

MIDDLESBORO*   FOG       37  37 100 CALM      30.31F VSB 1/2
6HR MIN TEMP:  37; 6HR MAX TEMP:  45; 6HR PCP:  0.04;

HAZARD APT*    CLOUDY    48  45  87 SW7       30.27R
BLACK MTN*       N/A     39  39 100 SW6         N/A  WCI  35
PIKEVILLE APT* CLOUDY    46  43  87 SW3       30.26
BIG SANDY*     CLOUDY    43  42  96 SW3       30.27R
6HR MIN TEMP:  38; 6HR MAX TEMP:  43;

MOREHEAD APT*  FOG       43  41  93 VRB6      30.28S VSB 3/4
$$

KYZ035-036-041-042-044-050-067-078-099-020100
...CENTRAL KENTUCKY...

CITY           SKY/WX    TMP DP  RH WIND       PRES   REMARKS
MT STERLING*   DRZL/FOG  41  41 100 W6        30.29R VSB 3/4
FLEMING/MASON* FOG       37  37 100 NW6       30.28R VSB 0   WCI  33
DANVILLE*      FOG       41  41 100 CALM      30.28S VSB 1/2
RICHMOND*      CLOUDY    45  43  93 SW8       30.28R
LEXINGTON      FOG       40  39  97 SW5       30.27S VSB 1/4
6HR MIN TEMP:  39; 6HR MAX TEMP:  41; 6HR PCP:  0.07;

FRANKFORT      CLOUDY    37  36  96 NW5       30.28R FOG     WCI  33
6HR MIN TEMP:  37; 6HR MAX TEMP:  42; 6HR PCP: TRACE;

$$

KYZ091>093-OHZ055-061-077-WVZ005-015-034-035-042-020100
...SOUTHERN OHIO/WEST VIRGINIA...

CITY           SKY/WX    TMP DP  RH WIND       PRES   REMARKS
COVINGTON      LGT SNOW  34  32  92 SW3       30.25F FOG
COLUMBUS       DRIZZLE   32  31  96 W5        30.24R FOG     WCI  27
DAYTON         CLOUDY    32  29  88 SW5       30.24F WCI  27
WILMINGTON     LGT SNOW  32  30  92 W8        30.24S FOG     WCI  25
HUNTINGTON     CLOUDY    39  39 100 SW5       30.25S FOG
CHARLESTON     LGT RAIN  42  41  96 SW6       30.24F FOG
PINEVILLE*     MIX PCPN  38  38 100 MISG      30.32S
BECKLEY        CLOUDY    41  39  93 SW3       30.24F FOG
BLUEFIELD      LGT RAIN  46  42  86 W13       30.26S FOG
$$

VAZ002-007-008-TNZ017-027-036-066-071-020100
...SOUTHWEST VIRGINIA/EAST TENNESSEE...

CITY           SKY/WX    TMP DP  RH WIND       PRES   REMARKS
WISE*          FOG       41  41 100 SW10      30.28S VSB 1/4
JONESVILLE*    CLOUDY    37  37 100 CALM      30.34F FOG
ABINGDON*      DRIZZLE   46  42  87 W5        30.30S
BRISTOL        LGT RAIN  46  43  89 CALM      30.31S
KNOXVILLE      LGT RAIN  44  42  93 W3        30.34S FOG
OAK RIDGE      CLOUDY    45  43  93 W6        30.36R FOG
CROSSVILLE     CLOUDY    46  44  93 S5        30.31R
NASHVILLE      LGT RAIN  50  49  96 S5        30.30S FOG
$$

...KEY TO REMARKS...
VSB - VISIBILITY IN MILES
WCI - WIND CHILL INDEX
HX  - HEAT INDEX

$$



USA.gov is the U.S. government's official web portal to all federal, state and local government web resources and services.